Wind_Speed
20 19 16 14 13 12 11 11 12 12 14 15 16 15 16 18 18 17 18 19 19 18 17 17 17 17 17 16 15 15 14 15 17 18 19 20 20 20 20 19 18 18 17 16
20 18 15 15 15 15 15 15 14 14 15 17 17 15 15 19 19 17 17 17 18 18 17 17 16 17 17 15 14 15 14 15 16 16 17 19 21 21 20 19 18 17 17 16
19 16 16 16 16 17 17 17 16 16 16 18 17 15 16 19 20 16 15 16 16 17 16 16 15 15 15 14 14 14 14 15 15 15 16 18 20 20 19 18 17 18 17 17
19 17 17 17 16 16 16 16 16 17 17 17 16 16 18 20 19 15 13 16 16 15 15 15 14 14 14 13 13 13 13 13 14 14 15 17 19 19 19 18 18 19 18 17
18 18 18 18 16 16 16 16 17 17 18 17 16 18 17 20 20 17 13 15 16 16 15 15 15 14 14 12 11 11 11 11 13 14 14 16 18 19 20 19 19 19 18 18
18 18 18 17 17 17 16 16 16 15 16 16 17 19 18 19 20 19 16 15 16 16 16 14 14 14 13 12 11 11 10 10 12 14 15 15 16 18 19 19 19 19 18 17
18 18 18 18 18 17 17 16 15 14 14 15 16 18 17 15 18 19 18 17 18 16 15 14 14 13 12 12 11 10 9 9 10 13 14 15 17 18 19 19 19 19 19 17
15 16 17 18 17 16 16 16 16 15 15 17 18 17 14 12 17 18 18 17 17 15 14 14 14 13 12 11 10 8 8 8 8 10 13 15 16 17 18 19 19 18 18 18
13 14 15 17 18 18 17 17 16 17 17 18 20 16 12 12 17 16 15 15 15 14 13 14 13 12 10 9 9 8 8 8 8 10 12 14 15 16 18 18 19 19 18 17
18 15 15 17 18 17 18 17 17 19 19 19 18 17 17 14 14 14 14 14 14 14 14 13 12 11 10 9 8 8 8 7 7 9 12 14 15 15 16 17 17 19 19 18
21 19 16 16 17 16 18 19 19 19 18 18 19 20 19 15 13 11 12 15 15 14 13 12 11 10 9 8 8 8 7 6 7 8 10 11 13 15 16 16 18 19 19 18
24 22 20 19 18 17 17 17 20 21 20 20 19 21 18 14 10 9 13 15 15 13 12 11 11 10 8 8 7 7 6 5 5 7 9 10 11 13 13 15 16 18 19 19
25 26 24 20 18 18 18 19 20 20 19 18 18 21 19 18 13 11 14 16 16 15 13 11 10 10 8 8 7 7 6 4 4 5 7 8 10 11 12 13 14 15 16 17
27 27 25 22 20 21 22 21 21 20 20 19 19 22 22 21 18 15 15 17 16 15 13 12 11 10 9 8 8 7 6 5 4 6 7 7 9 11 12 13 14 15 16 16
29 28 27 25 24 23 23 23 22 22 22 21 21 23 23 22 20 16 15 17 17 17 15 14 13 11 10 9 8 7 7 6 6 6 7 7 9 10 11 12 14 15 17 18
29 28 27 27 25 25 22 18 19 22 22 23 24 25 25 25 22 19 19 20 19 18 17 16 14 13 12 10 9 9 8 7 7 7 8 9 9 11 12 13 14 16 17 18
29 29 29 27 25 25 22 20 19 21 22 23 25 27 29 28 25 23 22 22 22 20 19 17 16 15 14 12 11 10 10 9 8 8 8 9 10 11 13 14 15 16 17 18
30 30 29 29 28 27 23 23 24 23 24 26 28 29 29 30 30 29 26 26 25 24 21 20 19 17 16 15 13 13 12 12 11 11 11 11 12 13 13 15 17 18 20 21
29 29 28 28 28 28 28 28 27 27 29 30 30 31 31 30 31 31 28 27 26 25 23 21 20 19 18 17 16 15 15 14 14 13 13 13 14 15 16 16 16 17 18 20
29 28 28 28 27 27 27 28 27 28 31 31 31 31 31 31 31 32 30 28 27 27 25 24 22 21 20 19 18 17 17 16 16 16 16 15 15 16 17 18 18 19 19 20
27 27 27 27 27 28 29 28 27 28 30 29 30 30 31 32 32 32 30 29 27 27 26 25 24 23 22 21 20 19 19 19 18 18 19 19 19 18 19 20 20 21 21 22
25 26 25 27 28 29 30 30 30 30 30 30 30 30 30 31 31 31 31 30 29 28 27 27 26 25 23 22 21 21 20 20 20 20 21 21 21 21 21 22 23 23 24 25
23 24 26 28 29 30 30 30 30 30 30 30 30 29 29 30 31 31 30 30 29 28 28 28 28 26 25 25 24 23 23 22 22 22 23 23 24 24 24 25 25 24 24 25
24 26 25 26 27 28 29 29 30 30 30 30 30 29 29 30 30 30 29 30 30 29 29 28 28 27 27 26 26 26 25 25 25 25 25 25 26 26 25 25 26 26 27 28
24 24 25 26 27 28 28 28 28 28 29 28 28 28 29 29 29 29 29 29 29 29 28 28 28 28 28 28 28 27 28 27 27 27 28 28 28 29 28 29 30 30 30 30
23 24 25 25 26 26 26 26 26 26 26 27 27 27 28 27 27 27 28 28 28 28 28 28 28 29 30 30 30 30 30 29 29 29 29 29 30 30 30 30 31 31 32 32
Wind_Direction
265 266 267 264 255 245 239 239 248 247 251 261 269 271 273 279 287 290 297 300 304 304 304 305 305 304 304 295 278 270 266 260 256 253 248 242 232 229 226 225 227 226 225 225
261 263 261 253 244 241 239 235 236 246 251 259 269 271 265 271 277 285 297 305 305 305 305 307 307 307 306 298 278 270 265 262 259 252 245 237 230 227 224 224 223 222 220 221
258 257 255 251 245 241 234 235 234 238 249 258 268 271 269 271 279 279 295 305 304 305 305 307 309 309 308 301 282 272 269 267 257 247 241 234 228 222 224 222 220 217 217 218
251 247 247 246 246 244 238 237 238 238 246 255 263 271 279 280 284 279 292 308 306 306 307 308 311 312 311 303 289 284 279 269 257 245 239 233 225 221 222 221 217 215 216 216
248 246 244 243 242 239 235 236 238 241 246 247 253 261 270 281 290 289 297 306 304 306 307 306 309 312 314 308 298 292 285 270 256 244 235 228 224 220 220 219 216 216 217 218
241 244 245 243 242 238 236 236 238 242 246 249 251 257 266 277 290 298 304 302 301 301 302 303 305 311 315 313 304 298 290 273 255 239 228 222 220 217 219 216 215 215 217 218
241 238 242 240 237 235 234 233 237 247 252 259 257 252 260 274 286 294 300 304 302 299 300 302 305 307 312 316 307 299 292 277 257 236 222 220 217 217 218 216 215 217 218 217
242 244 241 241 238 230 234 233 234 241 256 268 272 258 241 257 275 287 295 298 299 300 302 303 305 304 305 313 312 304 299 284 258 231 222 219 217 218 217 217 217 218 220 222
230 249 246 240 238 227 227 233 232 246 255 269 280 282 268 261 279 287 293 295 298 300 302 304 305 302 305 310 313 308 304 287 253 230 220 218 216 219 218 218 217 218 220 221
209 224 235 245 242 230 223 229 234 237 249 258 269 274 265 248 265 286 295 298 298 300 300 303 304 305 307 308 310 314 311 283 246 228 223 219 216 216 218 219 220 220 219 220
211 216 220 232 238 229 229 226 228 236 241 256 269 274 270 263 271 285 294 299 297 298 297 298 303 304 305 305 305 309 318 287 240 224 220 216 216 217 222 222 221 220 220 223
216 215 218 221 234 237 232 236 234 236 238 243 259 276 278 281 272 276 285 288 290 292 294 299 302 302 303 303 305 309 316 301 242 222 219 219 219 219 223 221 219 221 223 225
220 220 219 220 225 233 230 231 234 239 245 249 258 271 274 277 266 259 276 281 284 288 292 297 296 296 295 297 300 305 302 295 249 231 224 222 223 226 225 220 220 223 223 225
222 223 220 220 226 228 228 229 231 233 240 248 254 264 270 273 269 265 269 276 279 281 283 290 291 290 287 288 291 294 288 276 248 229 225 227 232 232 228 225 226 226 227 229
226 226 223 222 228 233 235 230 229 233 235 244 252 260 268 271 272 265 268 273 274 277 278 281 283 285 283 279 281 282 284 273 254 243 240 242 242 236 230 229 230 230 232 235
230 227 225 226 231 238 238 236 235 235 238 243 248 254 257 260 260 259 265 269 272 274 274 276 277 279 280 277 274 272 276 275 268 257 253 251 251 244 236 235 237 239 241 243
233 230 227 227 233 240 243 236 239 243 243 246 250 252 255 256 256 255 259 264 267 267 269 273 272 273 274 275 272 268 270 273 269 266 264 257 254 251 243 243 246 248 248 249
233 234 232 230 231 236 239 239 239 242 245 245 247 249 252 257 258 258 259 260 263 264 266 269 269 270 270 270 269 266 265 266 268 270 269 266 262 259 257 254 254 256 256 257
232 233 233 233 236 239 240 242 242 247 249 248 249 250 251 254 257 258 257 258 259 261 262 264 265 266 268 268 266 265 264 263 263 265 266 268 267 265 260 259 261 263 264 263
236 235 234 235 237 238 241 244 245 248 251 250 251 252 251 253 255 256 258 256 255 256 257 258 260 260 265 267 266 266 265 264 264 265 265 266 268 268 264 263 265 267 268 270
236 237 236 236 238 242 244 243 246 248 251 253 253 253 251 252 254 254 255 255 253 253 253 254 256 258 260 262 263 264 265 264 264 266 266 268 270 271 269 266 267 270 271 273
237 236 236 237 239 242 245 247 248 251 254 256 256 254 253 252 253 252 252 253 253 251 251 252 253 254 256 260 262 264 267 267 267 269 269 269 269 271 271 267 269 271 272 275
232 236 237 239 241 244 247 250 251 253 255 256 257 256 254 253 252 251 250 250 251 252 251 251 252 253 255 258 262 263 265 267 268 270 271 270 271 273 274 273 272 274 276 279
239 242 244 245 246 248 250 252 253 254 254 254 254 253 253 252 250 249 248 248 248 250 250 250 251 251 253 256 260 262 263 266 269 271 271 271 273 274 275 275 276 278 279 281
238 242 244 248 249 252 254 253 254 253 253 252 252 251 251 252 251 248 248 248 248 249 249 250 250 250 252 254 257 262 263 265 268 270 272 272 274 276 275 275 276 278 280 282
243 244 247 251 253 253 253 254 253 253 253 251 250 250 249 250 250 248 247 247 247 249 249 249 251 252 254 256 258 261 264 266 269 270 271 273 274 275 277 278 279 280 281 282
Height
5856 5858 5859 5861 5862 5864 5866 5868 5869 5871 5871 5870 5870 5870 5868 5866 5864 5862 5861 5860 5859 5856 5855 5853 5851 5848 5846 5844 5843 5842 5842 5843 5845 5846 5847 5849 5853 5857 5860 5863 5866 5869 5872 5874
5852 5854 5856 5856 5858 5860 5862 5864 5866 5868 5868 5867 5867 5866 5865 5863 5861 5859 5858 5857 5856 5853 5852 5851 5848 5845 5843 5841 5840 5839 5840 5840 5841 5843 5844 5847 5850 5853 5857 5860 5863 5866 5869 5872
5847 5850 5851 5852 5854 5856 5858 5860 5862 5864 5865 5864 5864 5863 5861 5858 5856 5854 5854 5853 5853 5852 5850 5848 5846 5843 5841 5838 5837 5837 5837 5837 5838 5839 5841 5844 5847 5850 5854 5858 5860 5863 5867 5869
5842 5845 5847 5849 5851 5852 5854 5857 5858 5859 5860 5861 5861 5859 5857 5854 5852 5850 5849 5851 5850 5848 5847 5845 5843 5841 5839 5836 5835 5834 5834 5834 5834 5836 5838 5841 5844 5848 5852 5855 5857 5861 5864 5867
5839 5841 5843 5845 5847 5849 5851 5853 5854 5855 5856 5856 5857 5855 5854 5850 5849 5846 5845 5847 5847 5846 5845 5843 5841 5839 5837 5835 5833 5832 5831 5831 5832 5833 5836 5838 5841 5845 5848 5852 5855 5858 5862 5865
5835 5837 5839 5841 5843 5845 5847 5849 5850 5850 5852 5852 5852 5852 5851 5848 5848 5845 5845 5845 5844 5844 5842 5841 5839 5837 5835 5833 5831 5830 5829 5829 5829 5831 5833 5835 5839 5842 5846 5849 5853 5856 5859 5862
5830 5833 5835 5837 5839 5841 5843 5846 5847 5848 5848 5848 5848 5847 5847 5845 5846 5845 5844 5843 5843 5842 5840 5839 5837 5835 5833 5831 5829 5828 5827 5827 5827 5828 5830 5833 5836 5839 5843 5846 5850 5853 5857 5860
5827 5830 5832 5834 5835 5838 5840 5842 5844 5845 5846 5844 5842 5841 5842 5842 5843 5842 5842 5841 5840 5839 5838 5837 5835 5833 5832 5830 5828 5827 5826 5825 5825 5826 5828 5831 5834 5837 5840 5844 5847 5851 5854 5857
5825 5827 5829 5830 5832 5835 5837 5838 5841 5842 5842 5842 5839 5838 5839 5839 5840 5839 5838 5838 5838 5837 5836 5835 5833 5831 5830 5828 5827 5825 5824 5823 5823 5824 5826 5828 5831 5834 5838 5841 5844 5848 5851 5854
5820 5824 5826 5827 5828 5830 5833 5835 5837 5838 5838 5838 5839 5836 5836 5833 5834 5836 5835 5835 5835 5834 5834 5833 5831 5830 5828 5827 5826 5824 5823 5821 5821 5822 5824 5826 5829 5832 5835 5838 5841 5845 5848 5851
5815 5819 5822 5824 5825 5827 5829 5831 5832 5834 5835 5836 5835 5835 5831 5829 5831 5832 5832 5832 5832 5832 5831 5831 5829 5828 5827 5826 5825 5823 5821 5820 5820 5821 5822 5825 5827 5830 5833 5836 5839 5842 5845 5848
5810 5813 5816 5819 5822 5824 5825 5827 5829 5830 5831 5832 5832 5834 5830 5828 5825 5827 5829 5830 5830 5830 5830 5829 5828 5827 5826 5825 5824 5823 5821 5819 5819 5820 5822 5824 5826 5828 5830 5833 5836 5838 5842 5845
5805 5808 5811 5815 5819 5820 5821 5822 5824 5826 5827 5828 5830 5831 5827 5825 5822 5824 5827 5827 5828 5828 5827 5827 5826 5826 5825 5824 5823 5822 5821 5820 5819 5820 5821 5823 5825 5826 5828 5830 5833 5836 5839 5842
5799 5802 5806 5810 5811 5812 5814 5817 5819 5821 5823 5825 5826 5825 5823 5822 5820 5821 5823 5824 5825 5825 5825 5825 5825 5824 5824 5823 5822 5821 5820 5820 5820 5820 5821 5822 5823 5824 5826 5828 5831 5834 5836 5839
5792 5796 5800 5803 5804 5806 5808 5810 5813 5816 5818 5820 5821 5820 5819 5818 5816 5816 5818 5820 5821 5822 5822 5823 5823 5822 5822 5821 5821 5820 5820 5819 5819 5820 5820 5821 5822 5822 5824 5826 5829 5831 5834 5836
5785 5790 5793 5797 5799 5801 5802 5805 5807 5810 5812 5815 5815 5815 5814 5813 5812 5813 5814 5816 5817 5818 5819 5820 5820 5820 5820 5819 5819 5819 5819 5819 5818 5818 5819 5819 5820 5821 5823 5825 5827 5828 5830 5832
5779 5783 5787 5791 5794 5795 5797 5800 5802 5805 5806 5808 5809 5809 5808 5807 5808 5808 5810 5812 5813 5814 5815 5816 5816 5816 5817 5817 5817 5817 5817 5817 5817 5817 5818 5818 5818 5819 5820 5822 5824 5825 5826 5828
5773 5776 5780 5785 5788 5789 5794 5794 5796 5798 5799 5800 5801 5802 5802 5802 5803 5803 5805 5807 5809 5811 5811 5812 5812 5813 5814 5814 5815 5815 5815 5815 5816 5816 5816 5816 5817 5817 5818 5820 5821 5822 5823 5823
5766 5770 5774 5778 5780 5783 5787 5787 5789 5791 5791 5792 5793 5795 5795 5796 5796 5797 5799 5802 5804 5805 5806 5808 5808 5809 5810 5811 5811 5812 5812 5813 5813 5813 5814 5814 5814 5814 5815 5816 5816 5817 5817 5818
5759 5763 5768 5770 5773 5776 5779 5780 5781 5784 5783 5784 5786 5787 5789 5790 5791 5792 5794 5795 5798 5799 5801 5803 5804 5804 5806 5806 5807 5808 5808 5809 5809 5810 5810 5810 5810 5811 5811 5812 5812 5812 5813 5813
5754 5757 5760 5763 5766 5768 5769 5770 5773 5776 5776 5776 5777 5779 5781 5782 5784 5786 5787 5789 5791 5793 5795 5797 5798 5799 5801 5802 5802 5803 5804 5805 5805 5805 5806 5806 5806 5806 5806 5807 5807 5807 5807 5807
5747 5750 5753 5756 5759 5762 5761 5763 5766 5767 5768 5769 5770 5772 5774 5774 5776 5778 5781 5783 5785 5787 5789 5791 5792 5794 5796 5797 5798 5799 5799 5799 5799 5800 5801 5801 5801 5801 5801 5801 5801 5801 5801 5801
5740 5744 5746 5749 5752 5752 5754 5756 5758 5759 5761 5762 5763 5764 5766 5767 5768 5771 5774 5776 5778 5780 5782 5784 5786 5788 5790 5791 5792 5793 5794 5794 5795 5795 5795 5795 5795 5795 5795 5794 5794 5794 5794 5793
5734 5737 5739 5741 5744 5745 5747 5748 5750 5752 5753 5754 5756 5757 5759 5760 5762 5764 5766 5769 5771 5773 5775 5777 5779 5781 5783 5784 5786 5787 5787 5788 5789 5789 5788 5788 5789 5788 5788 5787 5787 5787 5786 5786
5728 5731 5733 5734 5737 5738 5740 5741 5743 5744 5745 5747 5748 5750 5751 5753 5755 5757 5760 5762 5764 5767 5769 5771 5773 5775 5776 5777 5779 5780 5781 5781 5781 5782 5781 5781 5781 5781 5781 5780 5780 5779 5778 5778
5724 5725 5727 5729 5730 5732 5733 5734 5736 5737 5738 5740 5741 5743 5745 5747 5748 5751 5753 5755 5758 5760 5762 5764 5766 5768 5770 5771 5772 5773 5774 5774 5774 5774 5774 5774 5774 5773 5773 5772 5772 5771 5770 5769